owner,sensor,date,latitude,longitude,sea_surface_height_above_sea_level,qcFlag 
TCOON,ioos:station:TCOON:068:1,2017-06-01T00:18:00Z,27.2970,-97.4049,4.274,1111122 
TCOON,ioos:station:TCOON:068:1,2017-06-01T01:18:00Z,27.2970,-97.4049,4.313,1111122 
TCOON,ioos:station:TCOON:068:1,2017-06-01T02:18:00Z,27.2970,-97.4049,4.324,1111122 
TCOON,ioos:station:TCOON:068:1,2017-06-01T03:18:00Z,27.2970,-97.4049,4.341,1111122 
TCOON,ioos:station:TCOON:068:1,2017-06-01T04:18:00Z,27.2970,-97.4049,4.348,1111122 
TCOON,ioos:station:TCOON:068:1,2017-06-01T05:18:00Z,27.2970,-97.4049,4.346,1111122 
TCOON,ioos:station:TCOON:068:1,2017-06-01T06:18:00Z,27.2970,-97.4049,4.343,1111122 
TCOON,ioos:station:TCOON:068:1,2017-06-01T07:18:00Z,27.2970,-97.4049,4.336,1111122 
TCOON,ioos:station:TCOON:068:1,2017-06-01T08:18:00Z,27.2970,-97.4049,4.329,1111122 
TCOON,ioos:station:TCOON:068:1,2017-06-01T09:18:00Z,27.2970,-97.4049,4.321,1111122 
TCOON,ioos:station:TCOON:068:1,2017-06-01T10:18:00Z,27.2970,-97.4049,4.324,1111122 
TCOON,ioos:station:TCOON:068:1,2017-06-01T11:18:00Z,27.2970,-97.4049,4.352,1111122 
TCOON,ioos:station:TCOON:068:1,2017-06-01T12:18:00Z,27.2970,-97.4049,4.35,1111122 
TCOON,ioos:station:TCOON:068:1,2017-06-01T13:18:00Z,27.2970,-97.4049,4.347,1111122 
TCOON,ioos:station:TCOON:068:1,2017-06-01T14:18:00Z,27.2970,-97.4049,4.366,1111122 
TCOON,ioos:station:TCOON:068:1,2017-06-01T15:12:00Z,27.2970,-97.4049,4.355,1111122 
TCOON,ioos:station:TCOON:068:1,2017-06-01T16:18:00Z,27.2970,-97.4049,4.376,1111122 
TCOON,ioos:station:TCOON:068:1,2017-06-01T17:18:00Z,27.2970,-97.4049,4.343,1111122 
TCOON,ioos:station:TCOON:068:1,2017-06-01T18:18:00Z,27.2970,-97.4049,4.335,1111122 
TCOON,ioos:station:TCOON:068:1,2017-06-01T19:18:00Z,27.2970,-97.4049,4.33,1111122 
TCOON,ioos:station:TCOON:068:1,2017-06-01T20:18:00Z,27.2970,-97.4049,4.314,1111122 
TCOON,ioos:station:TCOON:068:1,2017-06-01T21:18:00Z,27.2970,-97.4049,4.311,1111122 
TCOON,ioos:station:TCOON:068:1,2017-06-01T22:18:00Z,27.2970,-97.4049,4.316,1111122 
TCOON,ioos:station:TCOON:068:1,2017-06-01T23:18:00Z,27.2970,-97.4049,4.33,1111122 
TCOON,ioos:station:TCOON:068:1,2017-06-02T00:18:00Z,27.2970,-97.4049,4.321,1111122 
TCOON,ioos:station:TCOON:068:1,2017-06-02T01:18:00Z,27.2970,-97.4049,4.321,1111122 
TCOON,ioos:station:TCOON:068:1,2017-06-02T02:18:00Z,27.2970,-97.4049,4.325,1111122 
TCOON,ioos:station:TCOON:068:1,2017-06-02T03:18:00Z,27.2970,-97.4049,4.329,1111122 
TCOON,ioos:station:TCOON:068:1,2017-06-02T04:18:00Z,27.2970,-97.4049,4.327,1111122 
TCOON,ioos:station:TCOON:068:1,2017-06-02T05:18:00Z,27.2970,-97.4049,4.332,1111122 
TCOON,ioos:station:TCOON:068:1,2017-06-02T06:18:00Z,27.2970,-97.4049,4.338,1111122 
TCOON,ioos:station:TCOON:068:1,2017-06-02T07:18:00Z,27.2970,-97.4049,4.345,1111122 
TCOON,ioos:station:TCOON:068:1,2017-06-02T08:18:00Z,27.2970,-97.4049,4.346,1111122 
TCOON,ioos:station:TCOON:068:1,2017-06-02T09:18:00Z,27.2970,-97.4049,4.341,1111122 
TCOON,ioos:station:TCOON:068:1,2017-06-02T10:18:00Z,27.2970,-97.4049,4.334,1111122 
TCOON,ioos:station:TCOON:068:1,2017-06-02T11:12:00Z,27.2970,-97.4049,4.333,1111122 
TCOON,ioos:station:TCOON:068:1,2017-06-02T12:18:00Z,27.2970,-97.4049,4.338,1111122 
TCOON,ioos:station:TCOON:068:1,2017-06-02T13:18:00Z,27.2970,-97.4049,4.34,1111122 
TCOON,ioos:station:TCOON:068:1,2017-06-02T14:18:00Z,27.2970,-97.4049,4.334,1111122 
TCOON,ioos:station:TCOON:068:1,2017-06-02T15:18:00Z,27.2970,-97.4049,4.334,1111122 
TCOON,ioos:station:TCOON:068:1,2017-06-02T16:12:00Z,27.2970,-97.4049,4.33,1111122 
TCOON,ioos:station:TCOON:068:1,2017-06-02T17:18:00Z,27.2970,-97.4049,4.321,1111122 
TCOON,ioos:station:TCOON:068:1,2017-06-02T18:18:00Z,27.2970,-97.4049,4.318,1111122 
TCOON,ioos:station:TCOON:068:1,2017-06-02T19:18:00Z,27.2970,-97.4049,4.312,1111122 
TCOON,ioos:station:TCOON:068:1,2017-06-02T20:18:00Z,27.2970,-97.4049,4.315,1111122 
TCOON,ioos:station:TCOON:068:1,2017-06-02T21:18:00Z,27.2970,-97.4049,4.313,1111122 
TCOON,ioos:station:TCOON:068:1,2017-06-02T22:18:00Z,27.2970,-97.4049,4.307,1111122 
TCOON,ioos:station:TCOON:068:1,2017-06-02T23:18:00Z,27.2970,-97.4049,4.309,1111122 
TCOON,ioos:station:TCOON:068:1,2017-06-03T00:12:00Z,27.2970,-97.4049,4.308,1111122 
TCOON,ioos:station:TCOON:068:1,2017-06-03T01:18:00Z,27.2970,-97.4049,4.312,1111122 
TCOON,ioos:station:TCOON:068:1,2017-06-03T02:18:00Z,27.2970,-97.4049,4.322,1111122 
TCOON,ioos:station:TCOON:068:1,2017-06-03T03:12:00Z,27.2970,-97.4049,4.331,1111122 
TCOON,ioos:station:TCOON:068:1,2017-06-03T04:18:00Z,27.2970,-97.4049,4.333,1111122 
TCOON,ioos:station:TCOON:068:1,2017-06-03T05:18:00Z,27.2970,-97.4049,4.331,1111122 
TCOON,ioos:station:TCOON:068:1,2017-06-03T06:18:00Z,27.2970,-97.4049,4.329,1111122 
TCOON,ioos:station:TCOON:068:1,2017-06-03T07:18:00Z,27.2970,-97.4049,4.327,1111122 
TCOON,ioos:station:TCOON:068:1,2017-06-03T08:18:00Z,27.2970,-97.4049,4.325,1111122 
TCOON,ioos:station:TCOON:068:1,2017-06-03T09:18:00Z,27.2970,-97.4049,4.326,1111122 
TCOON,ioos:station:TCOON:068:1,2017-06-03T10:18:00Z,27.2970,-97.4049,4.327,1111122 
TCOON,ioos:station:TCOON:068:1,2017-06-03T11:18:00Z,27.2970,-97.4049,4.326,1111122 
TCOON,ioos:station:TCOON:068:1,2017-06-03T12:12:00Z,27.2970,-97.4049,4.328,1111122 
TCOON,ioos:station:TCOON:068:1,2017-06-03T13:18:00Z,27.2970,-97.4049,4.331,1111122 
TCOON,ioos:station:TCOON:068:1,2017-06-03T14:18:00Z,27.2970,-97.4049,4.337,1111122 
TCOON,ioos:station:TCOON:068:1,2017-06-03T15:18:00Z,27.2970,-97.4049,4.329,1111122 
TCOON,ioos:station:TCOON:068:1,2017-06-03T16:18:00Z,27.2970,-97.4049,4.325,1111122 
TCOON,ioos:station:TCOON:068:1,2017-06-03T17:18:00Z,27.2970,-97.4049,4.318,1111122 
TCOON,ioos:station:TCOON:068:1,2017-06-03T18:18:00Z,27.2970,-97.4049,4.311,1111122 
TCOON,ioos:station:TCOON:068:1,2017-06-03T19:18:00Z,27.2970,-97.4049,4.305,1111122 
TCOON,ioos:station:TCOON:068:1,2017-06-03T20:12:00Z,27.2970,-97.4049,4.306,1111122 
TCOON,ioos:station:TCOON:068:1,2017-06-03T21:18:00Z,27.2970,-97.4049,4.317,1111122 
TCOON,ioos:station:TCOON:068:1,2017-06-03T22:18:00Z,27.2970,-97.4049,4.319,1111122 
TCOON,ioos:station:TCOON:068:1,2017-06-03T23:18:00Z,27.2970,-97.4049,4.323,1111122 
TCOON,ioos:station:TCOON:068:1,2017-06-04T00:18:00Z,27.2970,-97.4049,4.333,1111122 
TCOON,ioos:station:TCOON:068:1,2017-06-04T01:18:00Z,27.2970,-97.4049,4.326,1111122 
TCOON,ioos:station:TCOON:068:1,2017-06-04T02:18:00Z,27.2970,-97.4049,4.297,1111122 
TCOON,ioos:station:TCOON:068:1,2017-06-04T03:18:00Z,27.2970,-97.4049,4.301,1111122 
TCOON,ioos:station:TCOON:068:1,2017-06-04T04:18:00Z,27.2970,-97.4049,4.328,1111122 
TCOON,ioos:station:TCOON:068:1,2017-06-04T05:18:00Z,27.2970,-97.4049,4.336,1111122 
TCOON,ioos:station:TCOON:068:1,2017-06-04T06:18:00Z,27.2970,-97.4049,4.338,1111122 
TCOON,ioos:station:TCOON:068:1,2017-06-04T07:18:00Z,27.2970,-97.4049,4.337,1111122 
TCOON,ioos:station:TCOON:068:1,2017-06-04T08:18:00Z,27.2970,-97.4049,4.328,1111122 
TCOON,ioos:station:TCOON:068:1,2017-06-04T09:18:00Z,27.2970,-97.4049,4.325,1111122 
TCOON,ioos:station:TCOON:068:1,2017-06-04T10:18:00Z,27.2970,-97.4049,4.325,1111122 
TCOON,ioos:station:TCOON:068:1,2017-06-04T11:18:00Z,27.2970,-97.4049,4.322,1111122 
TCOON,ioos:station:TCOON:068:1,2017-06-04T12:18:00Z,27.2970,-97.4049,4.319,1111122 
TCOON,ioos:station:TCOON:068:1,2017-06-04T13:18:00Z,27.2970,-97.4049,4.322,1111122 
TCOON,ioos:station:TCOON:068:1,2017-06-04T14:12:00Z,27.2970,-97.4049,4.316,1111122 
TCOON,ioos:station:TCOON:068:1,2017-06-04T15:18:00Z,27.2970,-97.4049,4.311,1111122 
TCOON,ioos:station:TCOON:068:1,2017-06-04T16:18:00Z,27.2970,-97.4049,4.31,1111122 
TCOON,ioos:station:TCOON:068:1,2017-06-04T17:12:00Z,27.2970,-97.4049,4.309,1111122 
TCOON,ioos:station:TCOON:068:1,2017-06-04T18:18:00Z,27.2970,-97.4049,4.304,1111122 
TCOON,ioos:station:TCOON:068:1,2017-06-04T19:18:00Z,27.2970,-97.4049,4.311,1111122 
TCOON,ioos:station:TCOON:068:1,2017-06-04T20:18:00Z,27.2970,-97.4049,4.312,1111122 
TCOON,ioos:station:TCOON:068:1,2017-06-04T21:18:00Z,27.2970,-97.4049,4.304,1111122 
TCOON,ioos:station:TCOON:068:1,2017-06-04T22:18:00Z,27.2970,-97.4049,4.291,1111122 
TCOON,ioos:station:TCOON:068:1,2017-06-04T23:18:00Z,27.2970,-97.4049,4.29,1111122 
TCOON,ioos:station:TCOON:068:1,2017-06-05T00:18:00Z,27.2970,-97.4049,4.28,1111122 
TCOON,ioos:station:TCOON:068:1,2017-06-05T01:18:00Z,27.2970,-97.4049,4.283,1111122 
TCOON,ioos:station:TCOON:068:1,2017-06-05T02:18:00Z,27.2970,-97.4049,4.314,1111122 
TCOON,ioos:station:TCOON:068:1,2017-06-05T03:18:00Z,27.2970,-97.4049,4.31,1111122 
TCOON,ioos:station:TCOON:068:1,2017-06-05T04:18:00Z,27.2970,-97.4049,4.316,1111122 
TCOON,ioos:station:TCOON:068:1,2017-06-05T05:18:00Z,27.2970,-97.4049,4.349,1111122 
TCOON,ioos:station:TCOON:068:1,2017-06-05T06:18:00Z,27.2970,-97.4049,4.323,1111122 
TCOON,ioos:station:TCOON:068:1,2017-06-05T07:18:00Z,27.2970,-97.4049,4.316,1111122 
TCOON,ioos:station:TCOON:068:1,2017-06-05T08:18:00Z,27.2970,-97.4049,4.319,1111122 
TCOON,ioos:station:TCOON:068:1,2017-06-05T09:18:00Z,27.2970,-97.4049,4.315,1111122 
TCOON,ioos:station:TCOON:068:1,2017-06-05T10:18:00Z,27.2970,-97.4049,4.318,1111122 
TCOON,ioos:station:TCOON:068:1,2017-06-05T11:18:00Z,27.2970,-97.4049,4.315,1111122 
TCOON,ioos:station:TCOON:068:1,2017-06-05T12:12:00Z,27.2970,-97.4049,4.314,1111122 
TCOON,ioos:station:TCOON:068:1,2017-06-05T13:18:00Z,27.2970,-97.4049,4.317,1111122 
TCOON,ioos:station:TCOON:068:1,2017-06-05T14:18:00Z,27.2970,-97.4049,4.319,1111122 
TCOON,ioos:station:TCOON:068:1,2017-06-05T15:18:00Z,27.2970,-97.4049,4.297,1111122 
TCOON,ioos:station:TCOON:068:1,2017-06-05T16:18:00Z,27.2970,-97.4049,4.313,1111122 
TCOON,ioos:station:TCOON:068:1,2017-06-05T17:18:00Z,27.2970,-97.4049,4.313,1111122 
TCOON,ioos:station:TCOON:068:1,2017-06-05T18:18:00Z,27.2970,-97.4049,4.301,1111122 
TCOON,ioos:station:TCOON:068:1,2017-06-05T19:18:00Z,27.2970,-97.4049,4.302,1111122 
TCOON,ioos:station:TCOON:068:1,2017-06-05T20:18:00Z,27.2970,-97.4049,4.302,1111122 
TCOON,ioos:station:TCOON:068:1,2017-06-05T21:18:00Z,27.2970,-97.4049,4.282,1111122 
TCOON,ioos:station:TCOON:068:1,2017-06-05T22:18:00Z,27.2970,-97.4049,4.294,1111122 
TCOON,ioos:station:TCOON:068:1,2017-06-05T23:18:00Z,27.2970,-97.4049,4.301,1111122 
TCOON,ioos:station:TCOON:068:1,2017-06-06T00:18:00Z,27.2970,-97.4049,4.309,1111122 
TCOON,ioos:station:TCOON:068:1,2017-06-06T01:18:00Z,27.2970,-97.4049,4.307,1111122 
TCOON,ioos:station:TCOON:068:1,2017-06-06T02:18:00Z,27.2970,-97.4049,4.312,1111122 
TCOON,ioos:station:TCOON:068:1,2017-06-06T03:18:00Z,27.2970,-97.4049,4.306,1111122 
TCOON,ioos:station:TCOON:068:1,2017-06-06T04:18:00Z,27.2970,-97.4049,4.315,1111122 
TCOON,ioos:station:TCOON:068:1,2017-06-06T05:18:00Z,27.2970,-97.4049,4.322,1111122 
TCOON,ioos:station:TCOON:068:1,2017-06-06T06:18:00Z,27.2970,-97.4049,4.317,1111122 
TCOON,ioos:station:TCOON:068:1,2017-06-06T07:18:00Z,27.2970,-97.4049,4.317,1111122 
TCOON,ioos:station:TCOON:068:1,2017-06-06T08:18:00Z,27.2970,-97.4049,4.308,1111122 
TCOON,ioos:station:TCOON:068:1,2017-06-06T09:18:00Z,27.2970,-97.4049,4.312,1111122 
TCOON,ioos:station:TCOON:068:1,2017-06-06T10:12:00Z,27.2970,-97.4049,4.314,1111122 
TCOON,ioos:station:TCOON:068:1,2017-06-06T11:18:00Z,27.2970,-97.4049,4.312,1111122 
TCOON,ioos:station:TCOON:068:1,2017-06-06T12:18:00Z,27.2970,-97.4049,4.306,1111122 
TCOON,ioos:station:TCOON:068:1,2017-06-06T13:18:00Z,27.2970,-97.4049,4.303,1111122 
TCOON,ioos:station:TCOON:068:1,2017-06-06T14:18:00Z,27.2970,-97.4049,4.303,1111122 
TCOON,ioos:station:TCOON:068:1,2017-06-06T15:18:00Z,27.2970,-97.4049,4.307,1111122 
TCOON,ioos:station:TCOON:068:1,2017-06-06T16:18:00Z,27.2970,-97.4049,4.311,1111122 
TCOON,ioos:station:TCOON:068:1,2017-06-06T17:18:00Z,27.2970,-97.4049,4.315,1111122 
TCOON,ioos:station:TCOON:068:1,2017-06-06T18:18:00Z,27.2970,-97.4049,4.321,1111122 
TCOON,ioos:station:TCOON:068:1,2017-06-06T19:18:00Z,27.2970,-97.4049,4.316,1111122 
TCOON,ioos:station:TCOON:068:1,2017-06-06T20:18:00Z,27.2970,-97.4049,4.314,1111122 
TCOON,ioos:station:TCOON:068:1,2017-06-06T21:18:00Z,27.2970,-97.4049,4.31,1111122 
TCOON,ioos:station:TCOON:068:1,2017-06-06T22:18:00Z,27.2970,-97.4049,4.316,1111122 
TCOON,ioos:station:TCOON:068:1,2017-06-06T23:18:00Z,27.2970,-97.4049,4.312,1111122 
TCOON,ioos:station:TCOON:068:1,2017-06-07T00:18:00Z,27.2970,-97.4049,4.308,1111122 
TCOON,ioos:station:TCOON:068:1,2017-06-07T01:18:00Z,27.2970,-97.4049,4.313,1111122 
TCOON,ioos:station:TCOON:068:1,2017-06-07T02:18:00Z,27.2970,-97.4049,4.316,1111122 
TCOON,ioos:station:TCOON:068:1,2017-06-07T03:18:00Z,27.2970,-97.4049,4.31,1111122 
TCOON,ioos:station:TCOON:068:1,2017-06-07T04:18:00Z,27.2970,-97.4049,4.308,1111122 
TCOON,ioos:station:TCOON:068:1,2017-06-07T05:18:00Z,27.2970,-97.4049,4.312,1111122 
TCOON,ioos:station:TCOON:068:1,2017-06-07T06:18:00Z,27.2970,-97.4049,4.316,1111122 
TCOON,ioos:station:TCOON:068:1,2017-06-07T07:18:00Z,27.2970,-97.4049,4.318,1111122 
TCOON,ioos:station:TCOON:068:1,2017-06-07T08:18:00Z,27.2970,-97.4049,4.318,1111122 
TCOON,ioos:station:TCOON:068:1,2017-06-07T09:18:00Z,27.2970,-97.4049,4.319,1111122 
TCOON,ioos:station:TCOON:068:1,2017-06-07T10:18:00Z,27.2970,-97.4049,4.317,1111122 
TCOON,ioos:station:TCOON:068:1,2017-06-07T11:18:00Z,27.2970,-97.4049,4.314,1111122 
TCOON,ioos:station:TCOON:068:1,2017-06-07T12:18:00Z,27.2970,-97.4049,4.312,1111122 
TCOON,ioos:station:TCOON:068:1,2017-06-07T13:12:00Z,27.2970,-97.4049,4.31,1111122 
TCOON,ioos:station:TCOON:068:1,2017-06-07T14:18:00Z,27.2970,-97.4049,4.306,1111122 
TCOON,ioos:station:TCOON:068:1,2017-06-07T15:18:00Z,27.2970,-97.4049,4.301,1111122 
TCOON,ioos:station:TCOON:068:1,2017-06-07T16:18:00Z,27.2970,-97.4049,4.292,1111122 
TCOON,ioos:station:TCOON:068:1,2017-06-07T17:18:00Z,27.2970,-97.4049,4.288,1111122 
TCOON,ioos:station:TCOON:068:1,2017-06-07T18:18:00Z,27.2970,-97.4049,4.289,1111122 
TCOON,ioos:station:TCOON:068:1,2017-06-07T19:18:00Z,27.2970,-97.4049,4.286,1111122 
TCOON,ioos:station:TCOON:068:1,2017-06-07T20:12:00Z,27.2970,-97.4049,4.289,1111122 
TCOON,ioos:station:TCOON:068:1,2017-06-07T21:18:00Z,27.2970,-97.4049,4.298,1111122 
TCOON,ioos:station:TCOON:068:1,2017-06-07T22:18:00Z,27.2970,-97.4049,4.3,1111122 
TCOON,ioos:station:TCOON:068:1,2017-06-07T23:18:00Z,27.2970,-97.4049,4.308,1111122 
TCOON,ioos:station:TCOON:068:1,2017-06-08T00:18:00Z,27.2970,-97.4049,4.306,1111122 
TCOON,ioos:station:TCOON:068:1,2017-06-08T01:18:00Z,27.2970,-97.4049,4.307,1111122 
TCOON,ioos:station:TCOON:068:1,2017-06-08T02:18:00Z,27.2970,-97.4049,4.304,1111122 
TCOON,ioos:station:TCOON:068:1,2017-06-08T03:18:00Z,27.2970,-97.4049,4.309,1111122 
TCOON,ioos:station:TCOON:068:1,2017-06-08T04:18:00Z,27.2970,-97.4049,4.31,1111122 
TCOON,ioos:station:TCOON:068:1,2017-06-08T05:18:00Z,27.2970,-97.4049,4.308,1111122 
TCOON,ioos:station:TCOON:068:1,2017-06-08T06:18:00Z,27.2970,-97.4049,4.311,1111122 
TCOON,ioos:station:TCOON:068:1,2017-06-08T07:18:00Z,27.2970,-97.4049,4.315,1111122 
TCOON,ioos:station:TCOON:068:1,2017-06-08T08:18:00Z,27.2970,-97.4049,4.31,1111122 
TCOON,ioos:station:TCOON:068:1,2017-06-08T09:18:00Z,27.2970,-97.4049,4.306,1111122 
TCOON,ioos:station:TCOON:068:1,2017-06-08T10:12:00Z,27.2970,-97.4049,4.305,1111122 
TCOON,ioos:station:TCOON:068:1,2017-06-08T11:18:00Z,27.2970,-97.4049,4.3,1111122 
TCOON,ioos:station:TCOON:068:1,2017-06-08T12:18:00Z,27.2970,-97.4049,4.296,1111122 
TCOON,ioos:station:TCOON:068:1,2017-06-08T13:18:00Z,27.2970,-97.4049,4.297,1111122 
TCOON,ioos:station:TCOON:068:1,2017-06-08T14:12:00Z,27.2970,-97.4049,4.304,1111122 
TCOON,ioos:station:TCOON:068:1,2017-06-08T15:18:00Z,27.2970,-97.4049,4.297,1111122 
TCOON,ioos:station:TCOON:068:1,2017-06-08T16:18:00Z,27.2970,-97.4049,4.29,1111122 
TCOON,ioos:station:TCOON:068:1,2017-06-08T17:18:00Z,27.2970,-97.4049,4.285,1111122 
TCOON,ioos:station:TCOON:068:1,2017-06-08T18:18:00Z,27.2970,-97.4049,4.28,1111122 
TCOON,ioos:station:TCOON:068:1,2017-06-08T19:18:00Z,27.2970,-97.4049,4.268,1111122 
TCOON,ioos:station:TCOON:068:1,2017-06-08T20:18:00Z,27.2970,-97.4049,4.265,1111122 
TCOON,ioos:station:TCOON:068:1,2017-06-08T21:18:00Z,27.2970,-97.4049,4.267,1111122 
TCOON,ioos:station:TCOON:068:1,2017-06-08T22:18:00Z,27.2970,-97.4049,4.273,1111122 
TCOON,ioos:station:TCOON:068:1,2017-06-08T23:18:00Z,27.2970,-97.4049,4.273,1111122 
TCOON,ioos:station:TCOON:068:1,2017-06-09T00:18:00Z,27.2970,-97.4049,4.271,1111122 
TCOON,ioos:station:TCOON:068:1,2017-06-09T01:18:00Z,27.2970,-97.4049,4.275,1111122 
TCOON,ioos:station:TCOON:068:1,2017-06-09T02:18:00Z,27.2970,-97.4049,4.278,1111122 
TCOON,ioos:station:TCOON:068:1,2017-06-09T03:18:00Z,27.2970,-97.4049,4.281,1111122 
TCOON,ioos:station:TCOON:068:1,2017-06-09T04:18:00Z,27.2970,-97.4049,4.284,1111122 
TCOON,ioos:station:TCOON:068:1,2017-06-09T05:18:00Z,27.2970,-97.4049,4.282,1111122 
TCOON,ioos:station:TCOON:068:1,2017-06-09T06:18:00Z,27.2970,-97.4049,4.281,1111122 
TCOON,ioos:station:TCOON:068:1,2017-06-09T07:18:00Z,27.2970,-97.4049,4.278,1111122 
TCOON,ioos:station:TCOON:068:1,2017-06-09T08:18:00Z,27.2970,-97.4049,4.275,1111122 
TCOON,ioos:station:TCOON:068:1,2017-06-09T09:18:00Z,27.2970,-97.4049,4.28,1111122 
TCOON,ioos:station:TCOON:068:1,2017-06-09T10:18:00Z,27.2970,-97.4049,4.288,1111122 
TCOON,ioos:station:TCOON:068:1,2017-06-09T11:18:00Z,27.2970,-97.4049,4.296,1111122 
TCOON,ioos:station:TCOON:068:1,2017-06-09T12:18:00Z,27.2970,-97.4049,4.293,1111122 
TCOON,ioos:station:TCOON:068:1,2017-06-09T13:18:00Z,27.2970,-97.4049,4.288,1111122 
TCOON,ioos:station:TCOON:068:1,2017-06-09T14:18:00Z,27.2970,-97.4049,4.289,1111122 
TCOON,ioos:station:TCOON:068:1,2017-06-09T15:18:00Z,27.2970,-97.4049,4.286,1111122 
TCOON,ioos:station:TCOON:068:1,2017-06-09T16:18:00Z,27.2970,-97.4049,4.277,1111122 
TCOON,ioos:station:TCOON:068:1,2017-06-09T17:18:00Z,27.2970,-97.4049,4.271,1111122 
TCOON,ioos:station:TCOON:068:1,2017-06-09T18:18:00Z,27.2970,-97.4049,4.268,1111122 
TCOON,ioos:station:TCOON:068:1,2017-06-09T19:18:00Z,27.2970,-97.4049,4.254,1111122 
TCOON,ioos:station:TCOON:068:1,2017-06-09T20:18:00Z,27.2970,-97.4049,4.249,1111122 
TCOON,ioos:station:TCOON:068:1,2017-06-09T21:18:00Z,27.2970,-97.4049,4.245,1111122 
TCOON,ioos:station:TCOON:068:1,2017-06-09T22:18:00Z,27.2970,-97.4049,4.248,1111122 
TCOON,ioos:station:TCOON:068:1,2017-06-09T23:18:00Z,27.2970,-97.4049,4.249,1111122 
TCOON,ioos:station:TCOON:068:1,2017-06-10T00:18:00Z,27.2970,-97.4049,4.238,1111122 
TCOON,ioos:station:TCOON:068:1,2017-06-10T01:18:00Z,27.2970,-97.4049,4.243,1111122 
TCOON,ioos:station:TCOON:068:1,2017-06-10T02:18:00Z,27.2970,-97.4049,4.253,1111122 
TCOON,ioos:station:TCOON:068:1,2017-06-10T03:18:00Z,27.2970,-97.4049,4.261,1111122 
TCOON,ioos:station:TCOON:068:1,2017-06-10T04:18:00Z,27.2970,-97.4049,4.271,1111122 
TCOON,ioos:station:TCOON:068:1,2017-06-10T05:18:00Z,27.2970,-97.4049,4.281,1111122 
TCOON,ioos:station:TCOON:068:1,2017-06-10T06:18:00Z,27.2970,-97.4049,4.286,1111122 
TCOON,ioos:station:TCOON:068:1,2017-06-10T07:18:00Z,27.2970,-97.4049,4.289,1111122 
TCOON,ioos:station:TCOON:068:1,2017-06-10T08:18:00Z,27.2970,-97.4049,4.287,1111122 
TCOON,ioos:station:TCOON:068:1,2017-06-10T09:18:00Z,27.2970,-97.4049,4.287,1111122 
TCOON,ioos:station:TCOON:068:1,2017-06-10T10:18:00Z,27.2970,-97.4049,4.283,1111122 
TCOON,ioos:station:TCOON:068:1,2017-06-10T11:18:00Z,27.2970,-97.4049,4.284,1111122 
TCOON,ioos:station:TCOON:068:1,2017-06-10T12:18:00Z,27.2970,-97.4049,4.283,1111122 
TCOON,ioos:station:TCOON:068:1,2017-06-10T22:18:00Z,27.2970,-97.4049,4.25,1111122 
TCOON,ioos:station:TCOON:068:1,2017-06-10T23:18:00Z,27.2970,-97.4049,4.253,1111122 
TCOON,ioos:station:TCOON:068:1,2017-06-11T00:18:00Z,27.2970,-97.4049,4.255,1111122 
TCOON,ioos:station:TCOON:068:1,2017-06-11T01:18:00Z,27.2970,-97.4049,4.258,1111122 
TCOON,ioos:station:TCOON:068:1,2017-06-11T02:18:00Z,27.2970,-97.4049,4.263,1111122 
TCOON,ioos:station:TCOON:068:1,2017-06-11T03:18:00Z,27.2970,-97.4049,4.271,1111122 
TCOON,ioos:station:TCOON:068:1,2017-06-11T04:18:00Z,27.2970,-97.4049,4.278,1111122 
TCOON,ioos:station:TCOON:068:1,2017-06-11T05:12:00Z,27.2970,-97.4049,4.275,1111122 
TCOON,ioos:station:TCOON:068:1,2017-06-11T06:18:00Z,27.2970,-97.4049,4.274,1111122 
TCOON,ioos:station:TCOON:068:1,2017-06-11T07:18:00Z,27.2970,-97.4049,4.276,1111122 
TCOON,ioos:station:TCOON:068:1,2017-06-11T08:18:00Z,27.2970,-97.4049,4.284,1111122 
TCOON,ioos:station:TCOON:068:1,2017-06-11T09:18:00Z,27.2970,-97.4049,4.287,1111122 
TCOON,ioos:station:TCOON:068:1,2017-06-11T10:18:00Z,27.2970,-97.4049,4.291,1111122 
TCOON,ioos:station:TCOON:068:1,2017-06-11T11:18:00Z,27.2970,-97.4049,4.29,1111122 
TCOON,ioos:station:TCOON:068:1,2017-06-11T12:18:00Z,27.2970,-97.4049,4.284,1111122 
TCOON,ioos:station:TCOON:068:1,2017-06-11T13:18:00Z,27.2970,-97.4049,4.285,1111122 
TCOON,ioos:station:TCOON:068:1,2017-06-11T14:18:00Z,27.2970,-97.4049,4.283,1111122 
TCOON,ioos:station:TCOON:068:1,2017-06-11T15:18:00Z,27.2970,-97.4049,4.275,1111122 
TCOON,ioos:station:TCOON:068:1,2017-06-11T16:18:00Z,27.2970,-97.4049,4.271,1111122 
TCOON,ioos:station:TCOON:068:1,2017-06-11T17:18:00Z,27.2970,-97.4049,4.27,1111122 
TCOON,ioos:station:TCOON:068:1,2017-06-11T18:12:00Z,27.2970,-97.4049,4.267,1111122 
TCOON,ioos:station:TCOON:068:1,2017-06-11T19:18:00Z,27.2970,-97.4049,4.264,1111122 
TCOON,ioos:station:TCOON:068:1,2017-06-11T20:18:00Z,27.2970,-97.4049,4.272,1111122 
TCOON,ioos:station:TCOON:068:1,2017-06-11T21:18:00Z,27.2970,-97.4049,4.272,1111122 
TCOON,ioos:station:TCOON:068:1,2017-06-11T22:18:00Z,27.2970,-97.4049,4.275,1111122 
TCOON,ioos:station:TCOON:068:1,2017-06-11T23:18:00Z,27.2970,-97.4049,4.283,1111122 
TCOON,ioos:station:TCOON:068:1,2017-06-12T00:18:00Z,27.2970,-97.4049,4.278,1111122 
TCOON,ioos:station:TCOON:068:1,2017-06-12T01:18:00Z,27.2970,-97.4049,4.28,1111122 
TCOON,ioos:station:TCOON:068:1,2017-06-12T02:18:00Z,27.2970,-97.4049,4.277,1111122 
TCOON,ioos:station:TCOON:068:1,2017-06-12T03:18:00Z,27.2970,-97.4049,4.282,1111122 
TCOON,ioos:station:TCOON:068:1,2017-06-12T04:18:00Z,27.2970,-97.4049,4.29,1111122 
TCOON,ioos:station:TCOON:068:1,2017-06-12T05:18:00Z,27.2970,-97.4049,4.295,1111122 
TCOON,ioos:station:TCOON:068:1,2017-06-12T06:18:00Z,27.2970,-97.4049,4.298,1111122 
TCOON,ioos:station:TCOON:068:1,2017-06-12T07:18:00Z,27.2970,-97.4049,4.297,1111122 
TCOON,ioos:station:TCOON:068:1,2017-06-12T08:18:00Z,27.2970,-97.4049,4.3,1111122 
TCOON,ioos:station:TCOON:068:1,2017-06-12T09:18:00Z,27.2970,-97.4049,4.308,1111122 
TCOON,ioos:station:TCOON:068:1,2017-06-12T10:18:00Z,27.2970,-97.4049,4.309,1111122 
TCOON,ioos:station:TCOON:068:1,2017-06-12T11:18:00Z,27.2970,-97.4049,4.309,1111122 
TCOON,ioos:station:TCOON:068:1,2017-06-12T12:18:00Z,27.2970,-97.4049,4.307,1111122 
TCOON,ioos:station:TCOON:068:1,2017-06-12T13:18:00Z,27.2970,-97.4049,4.3,1111122 
TCOON,ioos:station:TCOON:068:1,2017-06-12T14:18:00Z,27.2970,-97.4049,4.296,1111122 
TCOON,ioos:station:TCOON:068:1,2017-06-12T15:18:00Z,27.2970,-97.4049,4.288,1111122 
TCOON,ioos:station:TCOON:068:1,2017-06-12T16:18:00Z,27.2970,-97.4049,4.281,1111122 
TCOON,ioos:station:TCOON:068:1,2017-06-12T17:18:00Z,27.2970,-97.4049,4.271,1111122 
TCOON,ioos:station:TCOON:068:1,2017-06-12T18:18:00Z,27.2970,-97.4049,4.266,1111122 
TCOON,ioos:station:TCOON:068:1,2017-06-13T15:18:00Z,27.2970,-97.4049,4.304,1111122 
TCOON,ioos:station:TCOON:068:1,2017-06-13T16:18:00Z,27.2970,-97.4049,4.29,1111122 
TCOON,ioos:station:TCOON:068:1,2017-06-13T17:18:00Z,27.2970,-97.4049,4.274,1111122 
TCOON,ioos:station:TCOON:068:1,2017-06-13T18:18:00Z,27.2970,-97.4049,4.266,1111122 
TCOON,ioos:station:TCOON:068:1,2017-06-13T19:18:00Z,27.2970,-97.4049,4.259,1111122 
TCOON,ioos:station:TCOON:068:1,2017-06-13T20:18:00Z,27.2970,-97.4049,4.272,1111122 
TCOON,ioos:station:TCOON:068:1,2017-06-13T21:18:00Z,27.2970,-97.4049,4.276,1111122 
TCOON,ioos:station:TCOON:068:1,2017-06-13T22:18:00Z,27.2970,-97.4049,4.271,1111122 
TCOON,ioos:station:TCOON:068:1,2017-06-13T23:18:00Z,27.2970,-97.4049,4.266,1111122 
TCOON,ioos:station:TCOON:068:1,2017-06-14T00:18:00Z,27.2970,-97.4049,4.258,1111122 
TCOON,ioos:station:TCOON:068:1,2017-06-14T01:18:00Z,27.2970,-97.4049,4.264,1111122 